sat.trackr.live / text

‹ back to catalog

HULIANWANG DIGUI-151

NORAD 67527 · 2026-013F

PAYLOAD ACTIVE UNKNOWN

§ Identity

Operator
Country
PRC
Launch date
2026-01-19
Launch site
WSC
Launch vehicle
Mass (kg)
RCS (m²)

External: N2YO · Heavens-Above · Gunter

§ Orbital elements

Epoch: 2026-05-25T04:42:04.178880Z

Period
108.33 min
Inclination
50.0090°
Eccentricity
0.0000918
Mean motion
13.29327920 rev/d
Perigee alt
1,148.6 km
Apogee alt
1,150.0 km
Semi-major
7,527.4 km
B*
6.5372e-5
RAAN
78.0651°
Arg perigee
25.3960°
Mean anomaly
334.6957°
Rev number
1,699

§ Raw data

HULIANWANG DIGUI-1511 67527U 26013F   26145.19588170 -.00000094  00000+0  65372-4 0  99962 67527  50.0090  78.0651 0000918  25.3960 334.6957 13.29327920 16993

JSON: /api/v1/satellites/67527 · /tle

For live sub-satellite position, see the globe view (requires WebGL).

§ Visibility from observer

Set your observer location to see the next 7 days of passes ≥ 10°. The values pass through the URL so the page stays shareable.

No JS? Fill the form by hand. The geolocation button needs JavaScript.